Regional Weather Roundup
Issued by NWS

Home | Current Version | Previous Version | Text Only | Print | Product List | Glossary Off
Versions: 1 2 3 4 5 6 7 8 9 10 11 12 13 14 15 16 17 18 19 20 21 22 23 24 25 26 27 28 29 30 31 32 33 34 35 36 37 38 39 40 41 42 43 44 45 46 47 48 49 50

000
ASUS43 KLSX 271707
RWRMO

WEATHER SUMMARY FOR MISSOURI
NATIONAL WEATHER SERVICE SPRINGFIELD MO
1200 PM CDT WED MAY 27 2015

NOTE: "FAIR" INDICATES FEW OR NO CLOUDS BELOW 12,000 FEET WITH NO
       SIGNIFICANT WEATHER AND/OR OBSTRUCTIONS TO VISIBILITY.
       CURRENT SKY AND/OR WEATHER CONDITIONS ARE NOT AVAILABLE FOR
       CHILLICOTHE AND FARMINGTON.

MOZ001>031-035>038-043-044-053-054-271800-
...NORTHERN AND WESTERN MISSOURI...

CITY           SKY/WX    TMP DP  RH WIND       PRES   REMARKS
KANSAS CTY INT MOSUNNY   77  54  44 CALM      30.11R
KANSAS C DTWN  SUNNY     79  56  45 VRB3      30.09S
LEE`S SUMMIT   SUNNY     78  54  43 N7        30.11R
ST JOSEPH      SUNNY     78  55  44 CALM      30.10R
CHILLICOTHE      N/A     77  60  55 CALM      30.10R
KIRKSVILLE     SUNNY     75  60  59 W9        30.09R

$$
MOZ066>068-077>081-088>096-101>105-271800-
...SOUTHWEST MISSOURI...

CITY           SKY/WX    TMP DP  RH WIND       PRES   REMARKS
SPRINGFIELD    SUNNY     77  64  64 SW5       30.12S
JOPLIN         PTSUNNY   79  66  64 N3        30.12R

$$
MOZ032>034-039>042-045>050-055>058-069>072-271800-
...CENTRAL MISSOURI...

CITY           SKY/WX    TMP DP  RH WIND       PRES   REMARKS
COLUMBIA       SUNNY     78  55  44 NW13      30.09S
JEFFERSON CITY SUNNY     78  53  41 W12       30.08S
ROLLA          MOSUNNY   74  65  73 W6        30.09S
SEDALIA        SUNNY     78  57  48 W7        30.12R
WHITEMAN AFB   SUNNY     76  56  49 NE8       30.10R
WARRENSBURG    SUNNY     77  55  47 E3        30.10R

$$
MOZ051-052-059>065-271800-
...EAST CENTRAL MISSOURI...

CITY           SKY/WX    TMP DP  RH WIND       PRES   REMARKS
ST LOUIS INTL  MOSUNNY   79  63  57 VRB7      30.07S
SPIRIT OF STL  MOSUNNY   78  64  61 W9        30.05F
ST CHARLES     PTSUNNY   76  62  62 W13       30.05S

$$
MOZ072>076-082>087-097>100-106>115-271800-
...SOUTH CENTRAL AND SOUTHEAST MISSOURI...

CITY           SKY/WX    TMP DP  RH WIND       PRES   REMARKS
CAPE GIRARDEAU PTSUNNY   76  64  66 SW10      30.10S
FARMINGTON     MOSUNNY   75  63  64 S9        30.14S
POPLAR BLUFF   PTSUNNY   76  65  68 S6        30.11S
WEST PLAINS    MOSUNNY   75  65  70 CALM      30.14S

$$


USA.gov is the U.S. government's official web portal to all federal, state and local government web resources and services.